Portada
METAR-TAF:

METAR-TAF

Aeroports :

Alton-Saint Louis, Illinois, Estats Units d'Amèrica

latitud: 38-54N, longitud: 090-03W, altitud: 166 m

Observació

L'informe es va fer fa 32 minuts, a les 00:50 UTC
Vent 5 kt del Nord-Oest
Temperatura 16°C
Humitat 48%
Pressió 1016 hPa
Visibilitat: 16.1 km
Cel clar

METAR: KALN 010050Z 32005KT 10SM CLR 16/05 A3000

Hora: 20:22 (01:22 UTC)


TAF: manca

Observacions i pronòstics meteorològics de més de 4000 aeroports (METAR i TAF).

Les estacions disponibles són els punts grocs i vermells al mapa.

Posi el ratolí al punt desitjat per veure el nom de l'estació.

Feu clic per veure les observacions i els pronòstics meteorològics.

Per canviar el mapa: feu clic els botons verds amb una creu de color negre per apropar; al botó verd amb un guió per allunyar la imatge; o en les fletxes verdes per a mapes adjacents.


METAR-TAF: